Corpus Christi, TX

1:19 PM CDT on May 27, 2017 (GMT -0500)
Corpus Christi International

Weather History for KCRP - November, 2010

Change the Weather History Date:

Tuesday, November 9, 2010

  Actual Average Record
Temperature  
Mean Temperature 68 °F 68 °F  
Max Temperature 81 °F 78 °F 90 °F (1979)
Min Temperature 54 °F 58 °F 34 °F (1991)
Degree Days  
Heating Degree Days 0 2  
Month to date heating degree days 21 13  
Since 1 July heating degree days 29 23  
Cooling Degree Days 3 5  
Month to date cooling degree days 21 52  
Year to date cooling degree days 3380 3403  
Growing Degree Days 18 (Base 50)    
Moisture  
Dew Point 57 °F    
Average Humidity 71    
Maximum Humidity 93    
Minimum Humidity 48    
Precipitation  
Precipitation 0.00 in 0.08 in 2.19 in (1986)
Month to date precipitation 0.77 0.76  
Year to date precipitation 43.07 28.72  
Snow  
Snow 0.00 in - - ()
Month to date snowfall 0.0  
Since 1 July snowfall 0.0  
Since 1 September snowfall 0.0  
Snow Depth 0.00 in    
Sea Level Pressure  
Sea Level Pressure 29.90 in    
Wind  
Wind Speed 12 mph (SSE)    
Max Wind Speed 25 mph    
Max Gust Speed 31 mph    
Visibility 10 miles    
Events      
T = Trace of Precipitation, MM = Missing Value Source: NWS Daily Summary

Daily Weather History Graph

Daily Weather History Graph

Search for Another Location

Airport or City:

Trip Planner

Search our weather history database for the weather conditions in past years. The results will help you decide how hot, cold, wet, or windy it might be!

Date:

Astronomy

Nov. 09, 2010 Rise Set
Actual Time 6:46 AM CST 5:40 PM CST
Civil Twilight 6:22 AM CST 6:05 PM CST
Nautical Twilight 5:54 AM CST 6:33 PM CST
Astronomical Twilight 5:26 AM CST 7:00 PM CST
Moon 10:15 AM CST (11/9) 8:52 PM CST (11/9)
Length of Visible Light 11h 42m
Length of Day
10h 54m
Waxing Crescent, 15% of the Moon is Illuminated
Nov 9
Waxing Crescent
Nov 13
First Quarter
Nov 21
Full
Nov 28
Last Quarter
Dec 5
New

Hourly Weather History & Observations

Time (CST) Temp. Heat Index Dew Point Humidity Pressure Visibility Wind Dir Wind Speed Gust Speed Precip Events Conditions
12:51 AM 55.9 °F - 52.0 °F 87% 29.96 in 10.0 mi SSE 8.1 mph - N/A   Partly Cloudy
1:51 AM 57.9 °F - 52.0 °F 81% 29.95 in 10.0 mi South 5.8 mph - N/A   Partly Cloudy
2:51 AM 54.0 °F - 51.1 °F 90% 29.94 in 10.0 mi SSE 5.8 mph - N/A   Partly Cloudy
3:51 AM 54.0 °F - 51.1 °F 90% 29.93 in 10.0 mi South 6.9 mph - N/A   Partly Cloudy
4:51 AM 55.0 °F - 51.1 °F 86% 29.93 in 10.0 mi SSE 8.1 mph - N/A   Partly Cloudy
5:51 AM 55.0 °F - 51.1 °F 86% 29.93 in 10.0 mi SSE 8.1 mph - N/A   Partly Cloudy
6:51 AM 54.0 °F - 50.0 °F 86% 29.93 in 10.0 mi South 6.9 mph - N/A   Partly Cloudy
7:51 AM 63.0 °F - 55.9 °F 78% 29.94 in 10.0 mi South 6.9 mph - N/A   Partly Cloudy
8:51 AM 73.0 °F - 57.0 °F 57% 29.95 in 10.0 mi South 11.5 mph - N/A   Partly Cloudy
9:51 AM 75.9 °F - 57.9 °F 54% 29.96 in 10.0 mi South 17.3 mph 24.2 mph N/A   Scattered Clouds
10:51 AM 79.0 °F - 57.0 °F 47% 29.96 in 10.0 mi SSE 16.1 mph 24.2 mph N/A   Scattered Clouds
11:51 AM 81.0 °F 81.3 °F 59.0 °F 47% 29.93 in 10.0 mi South 18.4 mph 27.6 mph N/A   Scattered Clouds
12:51 PM 80.1 °F 80.7 °F 59.0 °F 48% 29.90 in 10.0 mi South 19.6 mph 25.3 mph N/A   Scattered Clouds
1:51 PM 79.0 °F - 60.1 °F 52% 29.86 in 10.0 mi SSE 17.3 mph 26.5 mph N/A   Scattered Clouds
2:51 PM 79.0 °F - 60.1 °F 52% 29.84 in 10.0 mi SE 20.7 mph 28.8 mph N/A   Scattered Clouds
3:51 PM 79.0 °F - 61.0 °F 54% 29.85 in 10.0 mi SE 23.0 mph 27.6 mph N/A   Scattered Clouds
4:51 PM 77.0 °F - 61.0 °F 58% 29.85 in 10.0 mi SSE 19.6 mph - N/A   Partly Cloudy
5:51 PM 73.9 °F - 63.0 °F 68% 29.85 in 10.0 mi SSE 16.1 mph - N/A   Partly Cloudy
6:51 PM 72.0 °F - 64.0 °F 76% 29.85 in 10.0 mi SSE 12.7 mph - N/A   Partly Cloudy
7:51 PM 69.1 °F - 63.0 °F 81% 29.87 in 10.0 mi South 6.9 mph - N/A   Partly Cloudy
8:51 PM 68.0 °F - 62.1 °F 81% 29.87 in 10.0 mi SE 8.1 mph - N/A   Partly Cloudy
9:51 PM 68.0 °F - 62.1 °F 81% 29.88 in 10.0 mi SSE 8.1 mph - N/A   Partly Cloudy
10:51 PM 64.0 °F - 60.1 °F 87% 29.89 in 10.0 mi SSE 6.9 mph - N/A   Partly Cloudy
11:51 PM 62.1 °F - 59.0 °F 90% 29.89 in 10.0 mi SSE 5.8 mph - N/A   Scattered Clouds